sat.trackr.live / text

‹ back to catalog

STARLINK-30449

NORAD 57903 · 2023-146N

PAYLOAD ACTIVE UNKNOWN

§ Identity

Operator
Country
US
Launch date
2023-09-20
Launch site
AFETR
Launch vehicle
Mass (kg)
RCS (m²)

Purposes: comms

External: N2YO · Heavens-Above · Gunter

§ Orbital elements

Epoch: 2026-05-24T23:11:08.308032Z

Period
94.27 min
Inclination
43.0005°
Eccentricity
0.0001288
Mean motion
15.27585490 rev/d
Perigee alt
482.1 km
Apogee alt
483.9 km
Semi-major
6,861.2 km
B*
-1.6625e-5
RAAN
243.2632°
Arg perigee
277.3592°
Mean anomaly
82.7113°
Rev number
14,766

§ Raw data

STARLINK-304491 57903U 23146N   26144.96606838 -.00000720  00000+0 -16625-4 0  99972 57903  43.0005 243.2632 0001288 277.3592  82.7113 15.27585490147666

JSON: /api/v1/satellites/57903 · /tle

For live sub-satellite position, see the globe view (requires WebGL).

§ Visibility from observer

Set your observer location to see the next 7 days of passes ≥ 10°. The values pass through the URL so the page stays shareable.

No JS? Fill the form by hand. The geolocation button needs JavaScript.